Starlink 11683

operational
NORAD ID: 64239 Int'l Des: 2025-119 Owner: SPXS Country: US Constellation: starlink
LEOCIRCULAR

Über Starlink 11683

Beschreibung wird geladen...

Live-Position

3D-Globus wird geladen...

Nächste Überflüge

Höhenverlauf

Altitude vs Time

uPlot chart will show altitude changes over time

Zweizeiliger Elementsatz

1 64239U 25119G 25260.96885685 .00249944 00000-0 18770-2 0 9999
2 64239 42.9996 169.9112 0002090 231.6363 128.4317 15.71046831 18088
Epoch: 17. Sept. 2025 • Age: 27 hours

Aktueller Status

Höhe 354.4 km
Geschwindigkeit 7.70 km/s
Subsatellitenpunkt -6.66°S, 37.74°W
Startdatum 3. Juni 2025
Alter 0.2 years
Typ internet

Technische Details

Klassifizierung Payload
Masse 960.00 kg
Trockenmasse 910.00 kg
Gesamtmasse 960.00 kg
Länge 0.30 m
Durchmesser 4.10 m
Spannweite 29.00 m
Form Box + pan
Hersteller SPXS
Bus-Typ Starlink V2MD
Phasenstatus In Orbit
Besitzer/Staat SPXS/US

Große Konstellationen

Loading constellations...